Content
SEND FEEDBACK

Daily
Averages
Monthly
Summary
United States of America

ITHACA, NEW YORK


Home > North America > United States > New York
Elevation: 1094 feet     Latitude: 42 29N     Longitude: 076 28W

WEATHER
 
SELECT A DAY
Number of Records: 161,980;   Date Range: 1/1/95 - 10/19/14
 
SHARE

PRINT THIS DATA

[ ← Previous Day ]
WEATHER ALMANAC - OCTOBER 12, 2013
[ Next Day → ]
[ °C ]   °F
Weather ElementAverageHighLow
Temperature56.8 °F72.9 °F (1:56 pm)39.9 °F (5:56 am)
Dewpoint41.6 °F50.9 °F (11:56 pm)32.9 °F (12:56 pm)
Humidity63.1 %97 % (1:56 am)24 % (12:56 pm)
Barometer30.22 in30.27 in (11:56 pm)30.16 in (1:56 am)
Wind Speed5.6 mph12.7 mph (12:56 pm)
Weather ElementAverage
Visibility10 mi
Wind DirectionESE (100.8 °)

Weather ElementTotal
Precipitation---
Heating Degree Days8.6 (Base 65)
Growing Degree Days6.4 (Base 50)
Averaged from 24 records on October 12, 2013
WEATHER CONDITIONS BREAKOUT
WIND DIRECTION BREAKOUT
WEATHER BY HOUR - OCTOBER 12, 2013
[ °C ]   °F
Local TimeTemperatureDewpointHumidityBarometerVisibilityWind DirectionWind SpeedGust SpeedPrecipitationEventsConditions
1:56 AM41.9 °F41.0 °F97 %30.16 in10.0 miCalmClear
2:56 AM41.9 °F41.0 °F97 %30.17 in10.0 miEast (90°)4.6 mphClear
3:56 AM41.9 °F41.0 °F97 %30.17 in10.0 miEast (80°)4.6 mphClear
4:56 AM43.9 °F38.8 °F82 %30.18 in10.0 miEast (80°)5.8 mphClear
5:56 AM39.9 °F37.9 °F93 %30.20 in10.0 miCalmClear
6:26 AM42.8 °F37.4 °F81 %30.20 in10.0 miCalmClear
6:56 AM41.9 °F38.8 °F89 %30.22 in10.0 miEast (90°)4.6 mphClear
7:56 AM43.0 °F38.8 °F85 %30.24 in10.0 miESE (110°)4.6 mphClear
8:56 AM48.9 °F41.0 °F74 %30.25 in10.0 miESE (110°)3.5 mphClear
9:56 AM55.9 °F45.0 °F67 %30.24 in10.0 miCalmClear
10:56 AM63.0 °F45.0 °F52 %30.24 in10.0 miCalmClear
11:56 AM68.9 °F38.8 °F33 %30.23 in10.0 miSouth (180°)5.8 mphClear
12:56 PM72.0 °F32.9 °F24 %30.22 in10.0 miSSE (150°)12.7 mphClear
1:56 PM72.9 °F34.0 °F24 %30.21 in10.0 miSSE (150°)11.5 mphClear
2:56 PM72.9 °F36.9 °F27 %30.20 in10.0 miSouth (170°)10.4 mphClear
3:56 PM72.9 °F38.8 °F29 %30.19 in10.0 miSouth (180°)6.9 mphClear
4:56 PM72.0 °F41.9 °F34 %30.19 in10.0 miSSE (150°)3.5 mphClear
5:56 PM70.0 °F45.9 °F42 %30.20 in10.0 miCalmClear
6:56 PM61.0 °F43.9 °F53 %30.22 in10.0 miSE (140°)4.6 mphClear
7:56 PM59.9 °F45.0 °F58 %30.23 in10.0 miSSE (160°)9.2 mphClear
8:56 PM59.0 °F45.9 °F62 %30.24 in10.0 miSSE (150°)11.5 mphClear
9:56 PM59.9 °F46.9 °F62 %30.25 in10.0 miSE (140°)11.5 mphClear
10:56 PM57.9 °F50.0 °F75 %30.26 in10.0 miSSE (150°)10.4 mphClear
11:56 PM57.9 °F50.9 °F77 %30.27 in10.0 miSE (140°)9.2 mphClear
Hourly data recorded from KITH, located miles away from Ithaca, New York







STORIES FROM OUR PARTNERS